Location: Newark
(48.8833°N, 0.9236°W)
Time: 03:02:44
(UTC+00:00)

Envisat - Visible Passes

Search period start: 19 October 2019 00:00
Search period end: 29 October 2019 00:00
Orbit: 764 x 766 km, 98.1° (Epoch: 18 October)

Date Brightness Start Highest point End Pass type
(mag) Time Alt. Az. Time Alt. Az. Time Alt. Az.
19 Oct 3.2 18:09:17 10° S 18:14:22 75° WSW 18:19:28 10° NNW visible
19 Oct 6.3 19:53:02 10° W 19:54:16 11° W 19:55:31 10° WNW visible
20 Oct 3.1 17:32:42 10° SSE 17:37:38 55° ENE 17:42:37 10° N visible
20 Oct 5.4 19:13:02 10° SW 19:17:00 23° W 19:21:00 10° NW visible
21 Oct 6.3 05:39:01 10° NE 05:41:41 14° E 05:44:21 10° ESE visible
21 Oct 4.2 18:35:05 10° S 18:39:57 45° W 18:44:51 10° NNW visible
22 Oct 3.0 17:58:00 10° SSE 18:03:05 89° ENE 18:08:13 10° NNW visible
22 Oct 6.1 19:40:18 10° WSW 19:42:50 14° W 19:45:23 10° NW visible
23 Oct 5.1 19:01:19 10° SSW 19:05:38 28° W 19:09:59 10° NW visible
24 Oct 6.6 05:28:44 10° ENE 05:30:15 11° E 05:31:46 10° ESE visible
24 Oct 3.7 18:23:39 10° S 18:28:38 56° W 18:33:39 10° NNW visible
25 Oct 2.9 17:46:46 10° SSE 17:51:50 73° ENE 17:56:55 10° N visible
25 Oct 5.8 19:28:09 10° SW 19:31:25 17° W 19:34:43 10° NW visible
26 Oct 6.0 05:52:32 10° NE 05:56:08 19° E 05:59:42 10° SE visible
26 Oct 4.7 18:49:41 10° SSW 18:54:17 34° W 18:58:54 10° NNW visible
27 Oct 3.3 18:12:17 10° S 18:17:20 69° WSW 18:22:26 10° NNW visible
28 Oct 3.0 17:35:37 10° SSE 17:40:36 60° ENE 17:45:37 10° N visible
28 Oct 5.5 19:16:13 10° SW 19:20:01 21° W 19:23:50 10° NW visible
